Find Starlink 32150

NORAD ID: 60294 Int'l Des: 2024-132 Owner: SPXS Country: US Constellation: starlink operational
LEOCIRCULAR

当前视图

正在加载3D地球...

About Starlink 32150

Starlink 32150 (NORAD 60294) is a starlink constellation satellite (v2 mini) launched Jul 28, 2024 by SPXS of US. It operates in LEO, CIRCULAR orbit with a mass of 730.00 kg.

关于 Starlink 32150

正在加载描述...

即将过境

Passes for default location (London). Set your location on the main map for personalized predictions.

高度历史

Loading altitude history...

两行轨道根数

1 60294U 24132S 26168.83357485 .00000457 00000-0 26480-4 0 9999
2 60294 53.1608 307.2209 0001049 97.7490 262.3630 15.31705967106899
Epoch: Jun 17, 2026 • Age: 12 hours

当前状态

高度 474.1 km
速度 7.63 km/s
星下点 -11.37°S, 97.49°W
发射日期 Jul 28, 2024
运行时间 1.8 years
类型 internet

技术详情

分类 Payload
质量 730.00 kg
干质量 700.00 kg
总质量 730.00 kg
长度 0.30 m
直径 4.10 m
跨度 29.00 m
形状 Box + pan
制造商 SPXS
平台类型 Starlink V2M
阶段状态 In Orbit
所有者/国家 SPXS/US

Most Searched